SUOMI NPP

Last updated on Fri Dec 19 2025 00:02:25 GMT+0000 (Coordinated Universal Time)

1 37849U 11061A 25351.98010966 .00000058 00000+0 48615-4 0 9995 2 37849 98.7779 289.2746 0002393 111.1248 249.0184 14.19515682732735
UTC large
Height (km)
Speed (km/s)
/
Latitude / Longitude
Inclination (degrees)
Orbital Period (minutes)
Azimuth
Elevation
Range (km)
Doppler Factor

Next 0 passes for location: London (51.5072 / 0.1276)

Sorry there are no passes over London.